SCP
0 0 0 0 0 0 0 0 0 0 0 0 0 0 0 0 0 0 0 0 0 0 0 0 0 0 0 0 0 0 0 0 0 0 0 0 0 0 0 0 0 0 0
0 0 0 0 0 0 0 0 0 0 0 0 0 0 0 0 0 0 0 0 0 0 0 0 0 0 0 0 0 0 0 0 0 0 0 0 0 0 0 0 0 0 0
0 0 0 0 0 0 0 0 0 0 0 0 0 0 0 0 0 0 0 0 0 0 0 0 0 0 0 0 0 0 0 0 0 0 0 0 0 0 0 0 0 0 0
0 0 0 0 0 0 0 0 0 0 0 0 0 0 0 0 0 0 0 0 0 0 0 0 0 0 0 0 0 0 0 0 0 0 0 0 0 0 0 0 0 0 0
0 0 0 0 0 0 0 0 0 0 0 0 0 0 0 0 0 0 0 0 0 0 0 0 0 0 0 0 0 0 0 0 0 0 0 0 0 0 0 0 0 0 0
0 0 0 0 0 0 0 0 0 0 0 0 0 0 0 0 0 0 0 0 0 0 0 0 0 0 0 0 0 0 0 0 0 0 0 0 0 0 0 0 0 0 0
0 0 0 0 0 0 0 0 0 0 0 0 0 0 0 0 0 0 0 0 0 0 0 0 0 0 0 0 0 0 0 0 0 0 0 0 0 0 0 0 0 0 0
0 0 0 0 0 0 0 0 0 0 0 0 0 0 0 0 0 0 0 0 0 0 0 0 0 0 0 0 0 0 0 0 0 0 0 0 0 0 0 0 0 0 0
0 0 0 0 0 0 0 0 0 0 0 0 0 0 0 0 0 0 0 0 0 0 0 0 0 0 0 0 0 0 0 0 0 0 0 0 0 0 0 0 0 0 0
0 0 0 0 0 0 0 0 0 0 0 0 0 0 0 0 0 0 0 0 0 0 0 0 0 0 0 0 0 0 0 0 0 0 0 0 0 0 0 0 0 0 0
0 0 0 0 0 0 0 0 0 0 0 0 0 0 0 0 0 0 0 0 0 0 0 0 0 0 0 0 0 0 0 0 0 0 0 0 0 0 0 0 0 0 0
0 0 0 0 0 0 0 0 0 0 0 0 0 0 0 0 0 0 0 0 0 0 0 0 0 0 0 0 0 0 0 0 0 0 0 0 0 0 0 0 0 0 0
0 0 0 0 0 0 0 0 0 0 0 0 0 0 0 0 0 0 0 0 0 0 0 0 0 0 0 0 0 0 0 0 0 0 0 0 0 0 0 0 0 0 0
0 0 0 0 0 0 0 0 0 0 0 0 0 0 0 0 0 0 0 0 0 0 0 0 0 0 0 0 0 0 0 0 0 0 0 0 0 0 0 0 0 0 0
0 0 0 0 0 0 0 0 0 0 0 0 0 0 0 0 0 0 0 0 0 0 0 0 0 0 0 0 0 0 0 0 0 0 0 0 0 0 0 0 0 0 0
0 0 0 0 0 0 0 0 0 0 0 0 0 0 0 0 0 0 0 0 0 0 0 0 0 0 0 0 0 0 0 0 0 0 0 0 0 0 0 0 0 0 0
0 0 0 0 0 0 0 0 0 0 0 0 0 0 0 0 0 0 0 0 0 0 0 0 0 0 0 0 0 0 0 0 0 0 0 0 0 0 0 0 0 0 0
0 0 0 0 0 0 0 0 0 0 0 0 0 0 0 0 0 0 0 0 0 0 0 0 0 0 0 0 0 0 0 0 0 0 0 0 0 0 0 0 0 0 0
0 0 0 0 0 0 0 0 0 0 0 0 0 0 0 0 0 0 0 0 0 0 0 0 0 0 0 0 0 0 0 0 0 0 0 0 0 0 0 0 0 0 0
0 0 0 0 0 0 0 0 0 0 0 0 0 0 0 0 0 0 0 0 0 0 0 0 0 0 0 0 0 0 0 0 0 0 0 0 0 0 0 0 0 0 0
0 0 0 0 0 0 0 0 0 0 0 0 0 0 0 0 0 0 0 0 0 0 0 0 0 0 0 0 0 0 0 0 0 0 0 0 0 0 0 0 0 0 0
0 0 0 0 0 0 0 0 0 0 0 0 0 0 0 0 0 0 0 0 0 0 0 0 0 0 0 0 0 0 0 0 0 0 0 0 0 0 0 0 0 0 0
0 0 0 0 0 0 0 0 0 0 0 0 0 0 0 0 0 0 0 0 0 0 0 0 0 0 0 0 0 0 0 0 0 0 0 0 0 0 0 0 0 0 0
0 0 0 0 0 0 0 0 0 0 0 0 0 0 0 0 0 0 0 0 0 0 0 0 0 0 0 0 0 0 0 0 0 0 0 0 0 0 0 0 0 0 0
0 0 0 0 0 0 0 0 0 0 0 0 0 0 0 0 0 0 0 0 0 0 0 0 0 0 0 0 0 0 0 0 0 0 0 0 0 0 0 0 0 0 0
0 0 0 0 0 0 0 0 0 0 0 0 0 0 0 0 0 0 0 0 0 0 0 0 0 0 0 0 0 0 0 0 0 0 0 0 0 0 0 0 0 0 0
Wind_Speed
2 2 2 2 3 3 3 3 3 4 4 4 3 4 4 4 3 3 3 9 9 9 9 9 8 8 8 8 8 7 6 6 7 7 7 8 8 9 9 10 10 9 10
2 2 2 2 3 3 3 2 3 3 3 3 3 4 3 3 4 3 3 4 8 10 10 10 9 9 9 8 8 8 8 8 8 9 8 8 9 9 10 10 10 10 10
2 1 1 2 2 2 2 2 3 2 2 3 3 3 3 3 3 4 3 3 4 7 10 10 10 10 10 10 10 10 10 10 10 10 9 9 9 10 10 11 11 11 10
2 1 1 2 2 2 2 2 2 2 2 2 2 2 2 2 3 3 3 3 3 4 6 10 10 11 11 11 10 10 10 10 10 10 11 11 11 11 11 11 11 11 11
2 1 1 2 2 2 2 2 2 2 2 2 2 2 1 1 2 3 3 4 4 4 4 6 8 10 10 11 11 10 10 10 10 11 11 12 12 12 12 12 12 12 12
2 1 1 2 1 1 2 2 2 2 2 2 1 1 1 1 1 2 3 3 3 4 5 5 4 5 8 10 11 11 11 11 11 11 12 12 12 13 13 13 13 13 13
1 1 1 1 1 1 1 1 1 2 2 1 0 0 0 1 1 2 2 2 3 4 5 5 4 4 4 7 10 11 11 12 12 12 12 13 13 14 14 13 13 13 13
1 1 1 1 1 1 1 1 1 1 1 2 2 1 1 1 1 1 1 2 3 3 4 4 4 5 5 4 7 11 12 12 13 13 14 14 14 14 14 14 14 14 14
1 1 1 1 1 0 0 1 1 1 1 1 2 2 2 2 2 1 1 1 2 3 3 4 4 5 5 4 5 8 12 13 13 13 14 15 15 15 15 15 15 15 15
1 1 1 0 0 0 0 1 1 1 1 0 1 2 2 2 2 2 1 1 3 3 4 4 4 4 5 4 6 9 11 12 13 14 14 14 15 16 16 15 15 16 15
1 1 1 1 1 1 1 1 1 0 0 1 1 1 1 1 2 3 3 3 3 3 3 4 3 4 4 5 5 8 11 12 12 13 14 15 15 16 16 16 16 16 16
0 1 1 1 0 0 0 1 1 0 0 1 1 1 1 1 1 2 3 4 4 3 4 3 3 3 4 5 6 9 11 12 13 13 14 14 15 16 16 17 17 17 17
0 0 0 0 0 0 0 0 1 0 0 1 1 1 1 1 2 2 3 4 4 4 3 2 3 3 4 4 5 9 9 11 12 13 14 14 15 16 16 17 17 17 17
1 0 0 0 0 0 0 0 0 1 0 0 0 0 1 1 1 2 2 3 4 4 3 4 3 3 4 5 6 10 7 10 12 13 14 15 15 16 16 17 17 18 18
0 1 1 1 1 1 1 1 0 0 0 0 0 0 1 1 1 1 2 3 4 4 4 3 3 3 4 5 7 7 8 10 13 14 14 15 15 16 17 17 17 18 18
1 1 1 1 1 1 1 1 1 0 0 0 0 1 1 1 1 1 2 2 3 4 4 4 4 5 6 5 7 8 8 12 12 13 14 15 16 16 17 17 17 17 18
1 2 1 1 1 1 1 1 1 1 1 1 1 1 1 1 1 1 2 2 3 4 5 5 5 5 7 7 7 7 7 8 8 12 14 16 16 16 16 17 17 18 18
2 1 1 1 1 1 1 2 2 1 2 1 1 1 1 1 2 2 2 2 3 3 5 7 6 5 7 8 8 9 7 7 8 11 15 15 15 16 16 17 17 17 17
1 1 1 1 1 1 2 2 2 2 1 1 1 2 2 2 2 2 2 3 3 3 4 5 6 5 6 6 8 7 8 7 7 9 12 12 13 15 16 15 15 15 16
2 1 1 1 1 1 1 2 2 2 2 1 1 1 2 2 3 3 3 3 3 4 4 5 5 5 5 6 6 6 7 7 7 7 9 10 12 13 13 14 14 15 15
2 2 1 1 1 1 1 2 1 2 2 1 1 1 2 2 3 3 3 3 4 4 4 4 5 5 5 5 5 5 7 8 7 6 7 8 8 8 8 10 11 14 16
2 2 2 1 1 1 1 2 2 2 2 2 2 2 2 2 3 4 5 6 5 5 5 5 5 6 7 6 6 6 7 8 7 5 7 9 7 8 7 7 12 16 17
3 3 2 2 2 1 2 2 2 2 2 2 2 2 2 2 3 3 5 6 6 7 7 6 7 7 7 7 7 7 7 7 8 8 8 9 7 8 7 8 15 16 17
3 2 2 2 2 2 3 3 3 2 2 2 3 3 3 3 3 4 4 4 5 5 6 6 7 7 7 7 6 7 8 8 8 6 6 7 7 8 8 8 12 15 17
3 2 2 2 3 2 3 3 3 2 2 3 3 3 4 4 4 5 4 5 5 5 5 7 8 8 9 8 6 5 5 6 7 5 3 5 6 8 9 7 8 13 16
3 2 2 2 3 3 2 3 4 2 3 3 3 3 4 5 5 5 4 5 6 6 5 5 5 6 6 6 6 5 5 5 6 5 2 4 5 7 8 6 6 8 9
Wind_Direction
51 45 37 35 33 27 28 28 26 28 37 42 47 49 50 48 44 41 45 35 25 19 15 14 14 16 16 13 9 5 9 7 6 5 1 359 356 353 349 346 343 338 336
47 45 40 33 30 26 23 27 31 29 34 42 44 41 42 42 39 32 31 40 33 23 18 16 16 15 13 10 7 9 11 10 9 6 1 358 355 351 347 345 339 336 332
43 43 38 35 25 23 23 30 37 36 43 45 45 40 37 35 40 34 28 22 25 29 24 21 21 23 22 20 18 20 21 19 13 7 6 359 352 346 341 338 332 330 328
37 43 43 37 25 20 20 28 29 40 41 31 25 32 40 35 41 34 32 27 18 19 26 26 22 20 17 17 15 16 17 15 11 7 7 4 360 352 344 338 333 327 324
26 29 43 39 32 28 27 26 27 36 39 27 20 17 25 24 39 40 37 33 30 22 17 21 25 21 13 12 11 10 10 7 5 4 1 356 352 348 346 342 335 328 325
32 34 44 41 38 41 37 31 37 44 37 21 14 16 26 23 39 48 38 31 28 21 13 7 7 15 14 9 6 3 1 359 360 359 356 351 346 341 339 338 336 335 331
32 44 47 39 33 40 34 33 42 55 44 26 329 335 156 104 51 38 24 21 24 18 13 9 5 359 357 5 1 359 356 352 353 352 350 346 342 338 335 333 332 331 330
32 33 33 24 18 19 29 31 42 29 31 5 315 285 269 202 137 18 13 14 9 8 8 4 2 359 352 350 359 358 354 350 349 348 345 341 338 335 332 330 329 328 327
30 30 17 5 344 321 331 346 16 14 3 15 352 321 303 309 325 256 348 349 351 348 350 349 354 355 352 348 346 357 354 350 346 342 340 338 335 333 330 328 327 326 324
34 23 353 342 347 350 2 353 348 326 297 309 358 354 332 317 291 291 268 319 332 332 340 341 344 349 348 342 349 355 350 345 343 340 337 334 332 330 328 326 324 323 322
48 36 27 11 13 12 16 359 346 347 309 290 297 311 294 282 273 274 285 305 314 324 332 325 331 336 339 339 340 348 344 339 338 337 335 332 330 329 327 325 323 321 321
42 31 35 16 351 349 333 322 301 300 295 280 282 278 273 267 274 272 280 300 306 313 319 316 321 332 335 330 335 341 334 333 334 336 334 331 329 327 325 322 321 319 318
273 332 1 359 322 303 325 291 253 255 246 243 266 275 286 298 300 286 283 293 298 302 300 299 316 325 324 321 323 332 325 328 329 329 328 327 326 323 322 320 319 318 316
242 279 276 271 292 290 253 241 234 237 250 263 306 297 308 311 301 289 287 289 293 287 284 299 305 314 320 317 325 323 316 324 325 324 323 322 323 323 320 318 317 316 315
212 219 211 205 203 205 201 205 215 175 132 139 224 282 297 302 292 286 282 280 283 287 295 302 304 314 318 312 319 311 309 318 318 318 318 318 320 319 318 316 315 315 315
213 212 206 191 188 183 173 176 169 137 142 203 223 231 260 297 294 282 279 278 277 279 284 299 299 309 313 310 312 308 307 311 306 312 314 314 316 316 316 315 315 316 315
211 211 203 189 185 179 171 172 177 182 186 213 216 220 246 266 264 273 273 270 270 271 274 286 293 302 304 309 310 307 306 304 303 309 311 311 312 312 314 315 315 315 315
208 202 194 187 182 178 181 182 186 194 193 198 209 218 243 253 261 267 271 275 275 277 278 287 295 301 299 308 309 307 307 305 304 311 311 309 310 313 315 315 316 318 319
192 178 180 190 197 195 184 189 195 195 206 222 226 232 249 251 264 272 277 275 276 276 277 283 294 299 299 308 310 308 309 306 308 311 311 308 311 313 315 316 319 321 321
178 173 180 199 198 194 191 192 195 198 210 227 241 254 261 261 268 273 273 274 278 278 280 284 290 296 300 307 307 312 314 317 314 313 311 314 313 311 311 314 318 320 319
175 173 169 177 191 203 195 193 202 213 218 221 234 254 265 279 283 280 278 278 276 277 281 285 289 297 301 308 310 315 310 314 310 309 315 313 313 310 312 314 316 319 319
174 173 175 179 198 201 163 192 216 213 217 225 243 254 258 257 269 269 276 285 288 283 281 282 285 289 295 301 305 306 308 312 311 327 321 309 309 305 309 310 315 316 316
178 177 179 181 203 199 177 200 210 223 231 240 248 252 253 261 260 261 270 275 277 278 276 276 279 283 291 297 300 298 299 298 296 311 313 299 304 302 307 308 311 312 314
182 186 183 190 205 214 200 205 193 217 235 247 252 255 260 265 265 268 273 276 278 275 272 271 275 283 290 296 293 292 295 295 290 289 299 293 305 305 309 303 304 308 314
183 190 193 200 210 222 208 205 198 212 231 248 257 259 259 263 277 274 269 275 282 283 282 281 284 288 294 298 298 295 298 300 300 303 308 292 304 312 304 293 298 307 312
189 187 201 213 220 232 217 210 208 218 236 250 258 260 261 267 281 276 267 271 280 289 295 299 293 290 290 290 294 285 282 285 294 296 308 303 300 319 307 296 303 307 307